STARLINK-34589 (64747 NORAD) Tracking and Keplerian Element Data

This shows tracking and keplerian element data for the satellite.

Feedback or suggestion? Click here.




ElementValue
Catalog64747
NameSTARLINK-34589
Epoch Orbit2761
Epoch Day353.52247002
Epoch Year2025
RAAN180.8691
Inclination53.1576
Eccentricity0.0002014
Argument of Perigee85.647
Mean Anonmoly274.476
Mean Motion15.30193179
Decay Rate0.00014216
L11 64747U 25144Z 25353.52247002 .00014216 00000+0 49129-3 0 9995
L22 64747 53.1576 180.8691 0002014 85.6470 274.4760 15.30193179 27612



Live tracking and technical data element details for STARLINK-34589 (NORAD 64747). STARLINK-34589 can be tracked NOW for your location showing map with azimuth and elevation plus other details from your city location.







IsCatalogInMostPopularTable: catalog: 64747, numindb: 3
Update: records affected: 1



GetName: 64747 STARLINK-34589

Hit Count: updated at: Tue, 10 Feb 2026 04:00:58 GMT